Location: Unspecified
(40.4667°N, 0.0000°E)
Time: 22:13:36
(UTC+00:00)

N. Korean satellite - Visible Passes

Search period start: 22 October 2019 00:00
Search period end: 01 November 2019 00:00
Orbit: 455 x 508 km, 97.2° (Epoch: 21 October)

Date Brightness Start Highest point End Pass type
(mag) Time Alt. Az. Time Alt. Az. Time Alt. Az.
22 Oct 8.1 05:33:19 10° NNE 05:36:48 42° E 05:40:17 10° S visible
22 Oct 8.9 17:41:54 10° SSW 17:44:56 29° W 17:48:00 10° NW visible
23 Oct 9.6 05:08:36 10° NE 05:11:23 20° E 05:14:11 10° SE visible
25 Oct 6.9 05:50:37 10° NNE 05:54:16 75° E 05:57:57 10° S visible
25 Oct 9.9 18:00:04 10° SW 18:02:27 18° W 18:04:52 10° NW visible
26 Oct 8.6 05:25:34 10° NNE 05:28:55 33° E 05:32:18 10° SSE visible
26 Oct 8.3 17:33:49 10° SSW 17:37:01 37° W 17:40:17 10° NNW visible
27 Oct 9.9 05:01:03 10° NE 05:03:29 17° E 05:05:55 10° SE visible
28 Oct 10.4 18:19:15 10° WSW 18:20:01 11° W 18:20:46 10° WNW visible
29 Oct 7.4 05:42:44 10° NNE 05:46:23 58° E 05:50:03 10° S visible
29 Oct 9.4 17:51:44 10° SSW 17:54:29 22° W 17:57:17 10° NW visible
30 Oct 9.1 05:17:48 10° NE 05:21:01 27° E 05:24:12 10° SSE visible
30 Oct 7.7 17:25:43 10° S 17:29:04 48° W 17:32:29 10° NNW visible
31 Oct 10.2 04:53:36 10° ENE 04:55:31 14° E 04:57:28 10° ESE visible
